Погода в Михеевке

Россия / Оренбургская область     54°18′38″N   52°41′25″E
темп.,
°C
ветер,
м/с
пор.,
м/с
влажн.,
%
обл.,
%
осадки,
мм/ч
давл.,
гПа
погр.,
м
30 июня, чт
чт3023:00+10з22807 0.1 101432
02:00+8з22865 0.0 101310
05:00+8зсз22885 0.0 101310
08:00+12зсз367978 0.0 1012210
11:00+16з4667100 0.0 1010604
14:00+18з5558100 0.1 10091519
17:00+17зсз576699 1.2 10081256
20:00+14з4782100 1.9 1008259
1 июля, пт
пт123:00+10зсз228777 2.1 100812
02:00+8сз228942 0.0 100811
05:00+8с2292100 0.0 100912
08:00+11св3489100 0.0 1009243
11:00+14всв5578100 0.3 1010561
14:00+17в6668100 1.2 10101203
17:00+18в5565100 1.8 10101214
20:00+15всв3683100 2.2 1011186
2 июля, сб
сб223:00+12св478821 2.6 1012101
02:00+11всв349016 0.0 101266
05:00+10всв33915 0.0 101244
08:00+14всв47835 0.0 1012212
11:00+18всв45685 0.1 1012680
14:00+20всв55593 0.3 10111484
17:00+20св566535 1.3 10111187
20:00+17св478289 0.4 1010349
3 июля, вс
вс323:00+13св4109340 0.4 1010188
02:00+12св399487 0.0 1010154
05:00+11св38941 0.0 1009133
08:00+14св47845 0.0 1009256
11:00+18св67705 0.0 1009676
14:00+20св666425 0.7 10081281
17:00+20ссв5667100 1.2 10081260
20:00+18ссв36795 1.4 1008315
4 июля, пн
пн423:00+13с3790100 1.5 1009131
02:00+13с499545 0.0 1009283
05:00+10с311950 0.0 1010280
08:00+13с599063 0.0 1011443
11:00+14ссв6987100 0.0 1012694
14:00+17св787552 0.1 10121119
17:00+18ссв786924 0.3 10131352
20:00+16св597915 0.1 1014873